Location: Hylvaty SDH
(49.9612°N, 16.4057°E)
Time: 01:27:07
(UTC+01:00)

Transit 4A - Pass Details

Date: 16 August 2020
Orbit: 864 x 981 km, 66.8° (Epoch: 15 January)

Event Time Altitude Azimuth Distance (km) Brightness Sun altitude
Rises 11:58:24 0° 279° (W) 3,547 10.7 51.5°
Reaches altitude 10° 12:01:39 10° 296° (WNW) 2,629 10.1 51.7°
Maximum altitude 12:06:02 20° 342° (NNW) 2,040 9.5 52.0°
Drops below altitude 10° 12:10:30 10° 28° (NNE) 2,691 10.2 52.3°
Sets 12:13:53 0° 45° (NE) 3,657 10.8 52.4°
